Tracking 30746 objects as of 19-Jun-2025
HD Live streaming from Space Station
objects crossing your sky now

COSMOS 2580

Track COSMOS 2580 now!
10-day predictions


NORAD ID: 62216
Int'l Code: 2024-230A
Perigee: 908.5 km
Apogee: 916.5 km
Inclination: 67.1 °
Period: 103.1 minutes
Semi major axis: 7283 km
RCS: Unknown
Launch date: December 4, 2024
Source: Commonwealth of Independent States (former USSR) (CIS)
Launch site: PLESETSK MISSILE AND SPACE COMPLEX (PKMTR)
Your satellite tracking list
Your tracking list is empty




NASA's NSSDC Master Catalog

Two Line Element Set (TLE):
1 62216U 24230A   25169.88810014 -.00000044  00000-0  22476-4 0  9995
2 62216  67.1443 213.8283 0005454 269.6734  90.3726 13.96671977 27402
Source of the keplerian elements: AFSPC